Regional Weather Roundup
Issued by NWS

Home | Current Version | Previous Version | Text Only | Print | Product List | Glossary Off
Versions: 1 2 3 4 5 6 7 8 9 10 11 12 13 14 15 16 17 18 19 20 21 22 23 24 25 26 27 28 29 30 31 32 33 34 35 36 37 38 39 40 41 42 43 44 45 46 47 48 49 50

000
ASUS45 KCYS 270410
RWRWY

WYOMING REGIONAL WEATHER ROUNDUP
NATIONAL WEATHER SERVICE CHEYENNE WY
1000 PM MDT TUE AUG 26 2014

NOTE:  "FAIR" INDICATES FEW OR NO CLOUDS BELOW 12,000 FEET
WITH NO SIGNIFICANT WEATHER AND/OR OBSTRUCTIONS TO VISIBILITY.

WYZ001-270500-
YELLOWSTONE NATIONAL PARK

CITY           SKY/WX    TMP DP  RH WIND       PRES   REMARKS
LK YELLOWSTONE   N/A     41  38  89 NW3       30.38R
W YELLOWSTONE  NOT AVBL

$$
WYZ002>013-054>058-071-098>099-270500-
NORTHERN WYOMING

CITY           SKY/WX    TMP DP  RH WIND       PRES   REMARKS
JACKSON        PTCLDY    54  46  76 CALM      30.28R
CODY           PTCLDY    61  50  67 CALM      30.19S
GREYBULL       PTCLDY    69  49  48 CALM      30.12R
WORLAND        NOT AVBL
SHERIDAN       CLEAR     56  50  80 CALM      30.16R
BUFFALO        CLEAR     58  48  69 VRB3      30.22R
GILLETTE       PTCLDY    54  52  93 S5        30.19R
HULETT         FAIR      59  54  82 MISG      30.20
NEWCASTLE      FAIR      68  54  60 E8        30.17

$$
WYZ014>020-022>026-101>103-270500-
CENTRAL WYOMING

CITY           SKY/WX    TMP DP  RH WIND       PRES   REMARKS
BIG PINEY      CLOUDY    53  45  74 NE3       30.32R
PINEDALE       CLOUDY    50  45  81 NW3       30.33R
DUBOIS         FAIR      52  39  62 W3        30.32R
LANDER         MOCLDY    63  47  55 W9        30.21R
RIVERTON       CLOUDY    64  45  49 N9        30.21R
CASPER         PTCLDY    63  49  60 E7        30.21R
DOUGLAS        MOCLDY    63  53  70 NE15      30.21R

$$
WYZ021-027>030-104>119-270500-
SOUTHERN WYOMING

CITY           SKY/WX    TMP DP  RH WIND       PRES   REMARKS
EVANSTON       MOCLDY    54  46  74 N6        30.30R
KEMMERER       CLOUDY    54  45  71 CALM      30.33R
FORT BRIDGER   CLOUDY    55  47  73 CALM      30.33R
ROCK SPRINGS   CLOUDY    57  41  55 E8        30.30R
DIXON          FAIR      60  47  63 CALM      30.32R
RAWLINS        MOCLDY    59  48  67 SW9       30.29S
SARATOGA       FAIR      54  50  87 MISG      30.32R
LARAMIE        MOCLDY    58  45  62 SE3       30.31R
CHEYENNE       MOCLDY    59  51  75 E7        30.26R
TORRINGTON     MOCLDY    63  51  65 CALM      30.13R
PINE BLUFFS    FAIR      59  52  77 SE5       30.22S

$$


USA.gov is the U.S. government's official web portal to all federal, state and local government web resources and services.